Weather History for KVQQ - February, 2014

Change the Weather History Date:

Sunday, February 23, 2014

  Actual Average (KJAX) Record (KJAX)
Temperature  
Mean Temperature 54 °F 58 °F  
Max Temperature 62 °F 70 °F 85 °F (1962)
Min Temperature 46 °F 46 °F 25 °F (1978)
Degree Days  
Heating Degree Days 11 8  
Month to date heating degree days 219  
Since 1 July heating degree days 1095  
Cooling Degree Days 0 1  
Month to date cooling degree days 18  
Year to date cooling degree days 29  
Growing Degree Days 4 (Base 50)    
Moisture  
Dew Point 52 °F    
Average Humidity 93    
Maximum Humidity 100    
Minimum Humidity 81    
Precipitation  
Precipitation 0.08 in 0.12 in 1.59 in (1966)
Month to date precipitation 2.58  
Year to date precipitation 5.88  
Snow  
Snow 0.00 in 0.00 in T in (1989)
Month to date snowfall 0.0  
Since 1 July snowfall T  
Snow Depth -    
Sea Level Pressure  
Sea Level Pressure 30.07 in    
Wind  
Wind Speed 1 mph (South)    
Max Wind Speed 12 mph    
Max Gust Speed 17 mph    
Visibility 8 miles    
Events Rain    
T = Trace of Precipitation, MM = Missing Value Source: NWS Daily Summary

Daily Weather History Graph

Daily Weather History Graph

Search for Another Location

Airport or City:

Trip Planner

Search our weather history database for the weather conditions in past years. The results will help you decide how hot, cold, wet, or windy it might be!

Date:

Astronomy

Feb. 23, 2014 Rise Set
Actual Time 6:59 AM EST 6:22 PM EST
Civil Twilight 6:35 AM EST 6:46 PM EST
Nautical Twilight 6:07 AM EST 7:14 PM EST
Astronomical Twilight 5:39 AM EST 7:42 PM EST
Moon 1:44 AM EST (2/23) 12:35 PM EST (2/23)
Length of Visible Light 12h 10m
Length of Day
11h 22m
Last Quarter, 39% of the Moon is Illuminated
Feb 23
Last Quarter
Mar 1
New
Mar 8
First Quarter
Mar 16
Full
Mar 23
Last Quarter

Hourly Weather History & Observations

Time (EST) Temp. Dew Point Humidity Pressure Visibility Wind Dir Wind Speed Gust Speed Precip Events Conditions
12:15 AM 46.4 °F 41.0 °F 81% 30.10 in 10.0 mi Calm Calm - N/A   Clear
12:35 AM 46.4 °F 44.6 °F 93% 30.09 in 10.0 mi Calm Calm - N/A   Clear
12:55 AM 46.4 °F 42.8 °F 87% 30.09 in 10.0 mi Calm Calm - N/A   Clear
1:15 AM 46.4 °F 44.6 °F 93% 30.09 in 10.0 mi Calm Calm - N/A   Clear
1:35 AM 46.4 °F 44.6 °F 93% 30.09 in 10.0 mi Calm Calm - N/A   Clear
1:55 AM 46.4 °F 44.6 °F 93% 30.08 in 10.0 mi Calm Calm - N/A   Clear
2:15 AM 46.4 °F 44.6 °F 93% 30.08 in 10.0 mi Calm Calm - N/A   Scattered Clouds
2:35 AM 46.4 °F 44.6 °F 93% 30.07 in 10.0 mi Calm Calm - N/A   Partly Cloudy
2:55 AM 46.4 °F 44.6 °F 93% 30.07 in 10.0 mi Calm Calm - N/A   Clear
3:15 AM 46.4 °F 44.6 °F 93% 30.07 in 10.0 mi Calm Calm - N/A   Clear
3:35 AM 46.4 °F 46.4 °F 100% 30.07 in 10.0 mi Calm Calm - N/A   Mostly Cloudy
3:55 AM 48.2 °F 46.4 °F 93% 30.07 in 10.0 mi Calm Calm - N/A   Overcast
4:15 AM 50.0 °F 46.4 °F 87% 30.07 in 10.0 mi Calm Calm - N/A   Overcast
4:35 AM 50.0 °F 46.4 °F 87% 30.07 in 10.0 mi Calm Calm - N/A   Overcast
4:55 AM 51.8 °F 48.2 °F 88% 30.07 in 10.0 mi Calm Calm - N/A   Overcast
5:15 AM 53.6 °F 48.2 °F 82% 30.08 in 10.0 mi Calm Calm - N/A   Overcast
5:35 AM 53.6 °F 48.2 °F 82% 30.08 in 10.0 mi Calm Calm - N/A   Overcast
5:55 AM 53.6 °F 48.2 °F 82% 30.08 in 10.0 mi Calm Calm - N/A   Overcast
6:15 AM 53.6 °F 48.2 °F 82% 30.07 in 10.0 mi Calm Calm - N/A   Overcast
6:35 AM 51.8 °F 48.2 °F 88% 30.08 in 10.0 mi Calm Calm - N/A   Mostly Cloudy
6:50 AM 51.8 °F 48.2 °F 88% 30.07 in 10.0 mi Calm Calm - N/A   Mostly Cloudy
7:50 AM 55.4 °F 50.0 °F 82% 30.09 in 10.0 mi Calm Calm - N/A   Overcast
8:50 AM 57.2 °F 53.6 °F 88% 30.10 in 10.0 mi Calm Calm - N/A   Overcast
9:50 AM 60.8 °F 57.2 °F 88% 30.10 in 10.0 mi Calm Calm - N/A   Overcast
10:50 AM 62.6 °F 59.0 °F 88% 30.11 in 10.0 mi Calm Calm - N/A   Overcast
11:50 AM 62.6 °F 62.6 °F 100% 30.10 in 3.0 mi Calm Calm - N/A Rain Rain
12:50 PM 60.8 °F 60.8 °F 100% 30.13 in 1.0 mi WNW 8.1 mph - N/A Rain Rain
1:50 PM 59.0 °F 57.2 °F 94% 30.06 in 3.0 mi North 5.8 mph - N/A Rain Light Rain
2:50 PM 60.8 °F 59.0 °F 94% 30.05 in 5.0 mi Calm Calm - N/A Rain Light Rain
3:50 PM 60.8 °F 59.0 °F 94% 30.05 in 5.0 mi NW 4.6 mph - N/A Rain Light Rain
4:50 PM 60.8 °F 59.0 °F 94% 30.06 in 2.0 mi Calm Calm - N/A Rain Rain
5:50 PM 59.0 °F 59.0 °F 100% 30.07 in 3.0 mi Variable 3.5 mph - N/A Rain Rain
6:50 PM 59.0 °F 59.0 °F 100% 30.05 in 5.0 mi Variable 3.5 mph - N/A Rain Light Rain
7:50 PM 59.0 °F 57.2 °F 94% 30.06 in 10.0 mi Variable 4.6 mph - N/A   Scattered Clouds
8:15 PM 57.2 °F 57.2 °F 100% 30.06 in 8.0 mi Calm Calm - N/A Rain Light Rain
8:35 PM 57.2 °F 57.2 °F 100% 30.04 in 7.0 mi Calm Calm - N/A   Clear
8:55 PM 57.2 °F 57.2 °F 100% 30.04 in 8.0 mi Calm Calm - N/A   Partly Cloudy
9:15 PM 57.2 °F 57.2 °F 100% 30.05 in 2.5 mi Calm Calm - 0.04 in Rain Rain
9:35 PM 57.2 °F 57.2 °F 100% 30.04 in 6.0 mi South 4.6 mph - 0.05 in Rain Light Rain
9:55 PM 59.0 °F 57.2 °F 94% 30.05 in 3.0 mi South 5.8 mph - 0.07 in Rain Light Rain
10:15 PM 57.2 °F 57.2 °F 100% 30.04 in 5.0 mi SSE 5.8 mph - N/A Rain Light Rain
10:35 PM 57.2 °F 57.2 °F 100% 30.05 in 5.0 mi South 5.8 mph - N/A Rain Light Rain
10:55 PM 59.0 °F 57.2 °F 94% 30.04 in 5.0 mi South 6.9 mph - 0.01 in Rain Light Rain
11:15 PM 59.0 °F 59.0 °F 100% 30.03 in 5.0 mi South 8.1 mph - N/A Rain Light Rain
11:35 PM 59.0 °F 59.0 °F 100% 30.00 in 9.0 mi South 11.5 mph 17.3 mph N/A Rain Light Rain
11:55 PM 59.0 °F 59.0 °F 100% 29.99 in 10.0 mi South 8.1 mph - N/A Rain Light Rain